RH
5 6 6 5 5 4 4 4 3 3 3 3 3 4 4 5 6 6 7 9 10 10 10 10 10 9 9 8 6 6 7 10 14 17 18 16 15 15 14 14 12 9 9 10 12 13 15 19 22 23 24 26 27 25 22 20 19 18 18 18 18 17 17 18 18 19 19 20 20 21 23 24 26 28 29 30 32 32 33 34 35 36 37 38 39
6 5 5 5 4 4 4 3 3 3 2 3 3 3 4 5 5 6 6 8 9 9 9 9 9 8 7 5 6 10 15 19 21 24 25 25 23 21 20 19 17 15 15 16 16 15 16 21 23 22 23 25 26 24 19 18 18 18 18 19 20 20 20 21 21 22 22 22 24 24 25 26 28 31 32 33 35 36 36 37 37 39 40 42 43
8 5 5 5 4 4 4 3 3 3 3 3 3 3 4 4 4 5 6 7 8 8 7 7 7 6 5 7 13 19 24 28 31 33 34 33 31 29 27 25 22 20 21 22 22 20 22 24 23 23 22 22 24 23 19 17 16 16 16 18 19 21 22 23 24 25 26 27 28 29 30 31 32 34 35 36 38 39 39 39 39 41 42 45 46
11 7 4 4 5 4 3 3 3 3 3 3 3 3 3 4 4 4 5 6 6 6 6 6 5 6 10 17 24 30 33 37 39 39 38 37 36 35 33 30 27 26 27 27 26 25 24 22 20 21 20 20 21 20 18 17 16 16 16 17 18 20 22 23 26 29 31 33 35 38 40 42 43 43 42 42 43 42 42 42 42 44 47 48 51
12 11 6 4 4 4 3 3 3 3 3 2 2 3 3 4 4 4 4 5 5 5 5 5 7 13 20 28 33 38 41 44 42 38 35 35 37 38 38 36 33 31 31 31 29 26 22 19 18 19 18 19 19 17 15 16 16 17 19 22 24 26 30 35 39 41 41 42 43 44 43 44 50 53 50 48 50 52 49 44 42 46 49 50 54
12 12 10 5 3 3 3 3 3 3 3 3 3 3 3 4 3 4 4 4 4 5 5 7 13 22 29 35 40 44 47 45 39 32 29 30 33 36 39 39 37 35 35 33 29 24 20 19 18 18 18 18 18 18 19 21 24 30 35 39 41 43 46 46 45 43 42 42 45 45 40 37 42 48 46 41 45 52 50 41 41 46 45 45 52
12 12 12 9 5 4 3 3 3 3 3 3 3 3 4 3 3 4 3 4 5 5 6 12 22 30 35 41 45 48 48 42 34 28 26 27 29 32 35 36 37 38 36 30 24 20 19 19 18 17 18 18 21 26 32 37 42 47 49 49 49 47 44 39 33 30 30 32 36 39 38 36 37 41 40 35 38 44 41 36 41 48 43 39 47
10 11 11 10 7 5 5 4 3 3 3 3 3 4 3 3 4 4 4 5 5 5 11 20 28 33 39 44 47 49 47 39 31 26 24 23 23 26 28 30 31 30 26 21 19 18 18 17 17 18 20 24 31 40 47 53 58 58 54 50 45 41 37 32 28 25 25 28 31 32 34 37 39 39 37 36 38 40 34 30 38 48 46 43 49
8 8 9 9 8 7 7 5 4 3 3 3 3 3 4 4 4 3 4 4 4 8 17 24 29 36 41 45 48 50 45 37 29 25 21 18 17 18 19 20 21 19 17 16 16 16 17 18 20 23 29 38 47 54 59 63 65 63 57 52 50 48 44 39 35 30 28 30 31 31 31 35 37 36 36 35 34 34 33 32 37 46 46 45 52
5 5 6 7 7 7 7 6 4 3 3 4 4 4 4 4 4 4 3 3 6 15 21 24 30 38 42 45 50 51 44 35 29 23 18 15 13 12 12 13 14 14 15 15 16 18 21 25 29 34 43 52 57 61 63 63 64 64 62 59 60 60 57 54 52 46 39 38 39 35 33 37 40 38 39 41 37 34 36 37 41 50 53 53 60
4 4 4 5 5 6 6 5 3 3 4 4 4 4 4 3 3 3 3 6 13 20 21 23 32 40 41 43 50 52 45 36 29 23 18 15 12 11 11 12 13 15 16 18 21 26 31 36 41 46 53 58 59 61 63 64 65 67 67 66 65 63 61 58 55 50 44 42 43 42 40 43 46 45 46 48 44 39 40 42 45 52 56 57 61
4 4 4 4 4 5 5 4 3 3 4 4 4 4 3 3 3 3 5 13 20 21 21 27 37 41 40 42 49 53 48 40 33 25 19 15 13 12 13 14 16 19 21 24 29 35 42 47 52 57 61 62 62 63 66 67 68 68 70 71 68 66 62 55 48 43 38 36 38 42 43 42 44 51 54 51 46 45 47 49 51 54 54 52 54
4 4 4 4 4 4 4 3 3 4 4 4 4 4 3 3 3 4 11 18 20 20 24 33 39 41 40 42 49 54 50 44 37 28 20 16 14 14 15 18 21 26 30 34 37 42 49 55 60 65 68 67 67 69 70 71 71 71 73 74 73 70 63 52 42 33 27 28 32 38 44 43 42 54 63 59 53 54 57 59 61 61 58 56 58
4 4 4 4 4 4 3 3 4 4 4 4 4 4 4 3 3 7 13 17 18 22 28 34 39 41 42 44 48 51 52 49 41 31 22 17 15 16 19 24 30 36 39 42 44 47 53 60 65 68 71 71 72 72 74 75 75 75 75 76 77 74 61 46 35 27 22 24 26 32 44 46 41 49 64 69 70 73 71 68 65 61 61 65 68
5 5 5 4 4 4 4 4 4 4 4 4 3 4 3 3 6 11 16 19 23 29 34 38 41 43 43 45 46 48 51 52 46 35 26 20 17 18 22 30 37 42 44 46 47 49 56 63 67 69 72 74 74 74 75 76 76 76 76 76 78 73 58 41 31 26 23 22 23 29 39 44 45 54 70 77 79 77 66 57 60 66 70 75 77
6 6 6 5 5 5 4 4 5 4 4 4 3 4 4 6 11 17 23 29 35 39 41 43 45 46 47 47 47 48 51 53 51 42 31 24 21 20 25 34 40 42 45 48 48 53 60 66 69 71 73 75 75 72 69 68 66 67 68 71 74 67 54 43 36 31 29 30 33 39 46 54 61 70 77 77 70 60 49 54 71 74 63 58 58
7 7 8 8 8 8 7 6 5 4 4 4 5 7 10 16 23 29 35 40 42 42 40 39 41 44 47 49 49 51 51 53 54 49 39 32 26 23 25 33 39 43 46 48 49 55 63 67 69 70 71 73 72 67 63 59 57 58 60 64 68 62 54 52 47 41 44 48 53 61 66 68 70 72 74 70 60 53 54 63 68 56 40 36 36
6 6 9 12 14 16 17 16 15 14 14 16 19 23 27 32 36 39 40 39 37 33 28 26 25 28 36 46 51 54 53 53 55 53 48 42 34 28 27 30 35 41 45 48 50 54 61 65 67 68 69 69 67 64 61 54 52 55 54 53 58 59 58 61 54 52 64 72 71 72 72 69 69 68 66 61 56 58 61 53 42 33 27 28 27
9 11 14 18 22 24 25 26 28 30 31 34 38 41 41 42 41 39 36 33 31 28 24 21 20 23 33 47 55 57 55 55 56 56 55 51 43 36 33 32 33 37 42 47 51 55 60 63 66 66 66 65 63 59 57 51 48 51 50 52 61 63 57 56 54 61 76 77 68 68 70 69 67 63 62 62 61 59 52 38 32 32 28 25 26
14 20 26 28 30 31 32 34 38 41 44 49 51 50 47 47 45 41 38 36 34 33 31 32 34 38 45 55 64 66 61 57 57 57 58 57 52 46 44 41 37 36 38 42 49 56 60 62 64 64 63 61 58 55 55 51 47 48 51 62 76 72 57 54 62 72 78 69 59 69 78 73 65 62 64 64 53 40 32 27 29 32 28 27 31
26 37 43 42 44 47 49 51 52 54 58 61 61 59 57 56 52 46 42 38 35 33 34 37 42 46 51 60 72 79 74 65 59 58 59 60 59 56 54 52 46 41 38 38 44 52 58 61 63 62 60 57 54 52 53 49 46 52 60 72 85 80 67 68 73 73 73 68 64 72 77 71 65 62 56 45 30 20 20 20 21 22 22 23 26
46 56 57 55 59 64 65 66 66 65 67 68 67 67 67 65 61 55 49 45 43 42 42 43 45 47 52 60 73 84 86 78 68 61 59 60 62 62 62 61 58 52 45 40 40 47 53 57 59 59 58 55 53 55 56 55 60 68 69 71 78 76 68 71 75 71 70 71 70 69 64 57 49 40 29 22 18 18 19 17 15 15 14 15 20
61 65 63 62 68 71 70 72 73 72 72 73 71 70 69 67 66 63 60 57 55 54 53 52 52 54 57 61 66 74 82 85 80 72 64 61 61 63 65 67 67 63 56 48 44 45 48 51 54 56 56 55 58 65 68 71 78 79 69 63 67 70 67 68 73 75 72 66 57 47 39 33 27 21 20 21 21 21 21 19 17 14 12 13 19
62 66 65 67 73 73 71 72 72 71 73 73 72 72 71 69 70 70 68 67 64 60 58 55 54 57 62 65 64 65 71 79 81 79 75 69 64 63 64 67 69 68 62 56 50 45 44 46 49 51 53 55 59 63 68 74 78 76 67 57 53 58 63 62 62 67 66 57 46 36 30 29 27 24 25 25 24 24 23 20 18 15 13 14 18
59 62 66 73 78 77 74 73 71 70 72 72 71 72 73 73 73 72 71 72 70 67 64 58 53 53 58 65 67 65 64 68 72 76 79 76 68 64 65 68 70 69 66 63 59 52 45 45 46 48 53 54 50 50 59 68 70 67 62 55 46 48 55 56 58 62 59 53 54 53 44 37 33 27 25 25 25 26 26 22 21 18 16 17 20
63 62 69 78 82 80 77 77 75 73 73 72 70 69 70 70 71 70 70 71 71 69 68 64 57 52 52 60 67 67 64 63 63 65 70 72 70 67 67 68 70 71 70 67 65 59 52 48 47 48 51 49 45 48 59 65 63 59 57 55 51 46 43 45 56 65 60 54 61 67 56 43 38 33 28 27 28 29 28 23 20 18 16 18 21
70 69 72 77 79 78 77 79 80 78 76 74 71 69 68 68 67 67 68 68 68 69 68 66 63 57 50 53 63 70 69 66 62 58 57 59 62 66 70 72 71 69 66 62 58 54 49 46 45 46 47 45 48 59 66 62 57 56 56 55 55 50 42 41 53 69 72 63 63 65 56 43 39 36 30 29 30 29 26 20 15 14 14 14 17
71 75 77 75 74 75 76 79 81 80 78 76 73 70 68 68 67 66 67 66 66 66 66 66 66 63 54 51 57 66 71 71 70 65 59 53 50 51 55 60 60 56 53 50 47 44 40 38 39 40 42 44 50 61 64 58 55 59 59 59 59 53 47 49 57 66 64 52 43 42 38 31 29 27 25 27 28 26 22 17 12 11 11 10 13
67 76 81 79 77 77 77 78 79 77 76 75 73 70 69 69 68 67 66 66 65 64 64 63 64 63 58 52 52 57 65 70 72 71 69 65 58 50 46 45 44 44 44 42 40 37 35 34 36 37 40 44 49 53 54 54 58 63 65 64 61 52 49 58 67 59 42 28 23 24 24 22 21 21 22 24 24 22 18 14 11 9 8 8 11
58 65 73 77 79 79 80 80 80 78 76 73 71 70 69 68 68 67 66 65 64 63 62 62 62 61 59 55 52 52 57 63 66 65 67 69 68 61 53 46 41 38 37 35 33 32 33 34 35 37 40 43 45 48 52 57 63 67 66 62 58 52 51 57 60 45 27 20 21 20 19 19 19 19 21 21 19 17 14 12 10 8 6 7 10
49 54 60 66 71 74 77 78 78 78 75 72 69 68 66 64 61 58 55 53 51 50 51 53 55 55 52 51 51 51 53 57 59 59 60 62 62 59 55 50 45 40 38 36 37 39 41 42 42 42 43 44 46 51 58 63 65 64 60 52 46 44 42 41 37 29 22 21 22 19 19 19 18 19 20 18 15 14 12 10 9 7 6 7 9
35 40 46 53 59 64 69 71 71 71 69 66 64 61 59 55 50 43 38 33 30 29 29 31 35 38 38 38 39 42 46 50 51 51 52 51 50 49 48 46 44 43 43 45 48 50 51 51 51 50 51 53 54 54 56 57 56 53 49 44 38 35 33 30 26 24 23 22 21 20 21 21 20 20 20 17 15 13 11 9 8 6 6 6 7
21 25 30 36 43 50 56 60 61 61 60 58 56 52 47 41 34 26 19 15 13 13 13 13 14 18 21 22 24 27 31 35 37 39 40 39 38 38 38 37 38 39 41 44 47 48 48 47 46 44 44 45 44 42 41 41 42 41 40 39 36 31 28 25 24 23 23 23 23 23 23 23 23 22 20 18 15 12 10 9 8 6 5 5 5
13 14 16 18 22 26 31 34 37 38 37 36 33 30 25 19 15 11 9 9 9 9 8 7 7 8 10 12 14 16 19 21 23 25 25 26 27 26 25 26 29 30 30 33 38 42 48 55 57 54 51 49 46 41 34 29 31 34 33 32 31 28 25 24 23 24 24 24 24 24 24 24 24 22 19 17 14 12 10 9 7 6 5 4 4
12 11 11 11 10 10 11 12 13 14 13 12 11 10 9 8 8 9 9 10 10 9 9 9 8 8 9 10 11 12 13 14 15 16 17 19 20 18 17 20 22 23 22 23 25 26 29 36 42 45 48 49 47 41 33 29 32 35 32 28 27 26 25 25 25 25 26 26 26 26 26 25 23 21 18 16 13 11 10 8 7 7 5 4 4
13 12 12 11 11 11 10 10 9 9 8 8 8 8 9 9 9 10 11 11 11 11 12 11 10 10 10 10 10 11 11 11 11 12 13 14 14 15 17 20 22 21 19 18 19 20 21 22 25 31 38 40 39 39 40 42 43 40 32 27 26 25 25 26 27 27 28 27 27 27 26 25 23 20 17 14 12 10 9 7 7 7 6 5 5
14 14 13 12 12 12 12 12 12 12 11 11 11 11 11 11 10 11 11 11 11 11 12 13 13 13 12 12 13 14 16 19 21 21 20 19 20 23 27 30 31 31 32 33 34 35 38 39 39 39 41 40 41 44 46 45 41 34 29 26 26 26 27 27 27 28 28 27 27 26 25 23 20 17 14 13 11 10 9 8 8 8 7 6 7
19 16 15 12 11 12 12 13 14 14 13 13 12 11 12 11 11 11 11 11 12 12 13 14 15 16 16 16 18 21 27 32 36 37 37 36 36 38 42 46 46 44 45 47 43 38 39 43 45 44 42 41 40 40 38 34 30 28 27 27 27 27 27 27 27 27 27 26 25 24 22 20 17 14 12 12 11 10 10 10 8 7 8 8 9
31 26 22 17 12 11 11 12 13 15 16 16 15 14 13 13 12 12 12 12 12 12 13 14 14 15 17 18 18 23 30 34 35 37 37 37 37 39 42 45 44 41 40 39 35 32 34 38 39 39 39 38 35 32 30 28 27 27 27 27 27 27 26 26 26 26 26 25 23 21 19 17 15 13 12 11 11 11 11 10 8 8 8 9 10
42 38 35 28 20 15 12 10 11 12 14 17 19 20 20 19 18 17 17 17 17 21 27 31 31 29 28 25 21 21 23 24 24 25 26 27 31 35 37 38 36 35 35 34 31 29 31 33 33 32 31 30 29 28 27 27 27 26 26 26 26 25 24 25 25 25 24 23 21 18 16 14 13 12 12 12 12 12 11 10 9 9 9 9 10
50 48 46 41 34 28 22 17 14 12 13 16 18 20 22 23 23 23 23 24 27 32 42 50 53 54 53 49 42 37 33 31 31 30 28 28 31 33 34 34 32 31 31 30 29 29 29 30 30 30 28 28 28 27 27 27 26 25 25 24 24 24 23 24 23 22 21 19 17 15 14 13 12 13 13 13 13 12 11 11 11 11 11 10 10
55 54 51 47 44 39 34 29 25 20 18 19 20 21 23 24 24 25 26 28 30 33 37 42 48 55 58 55 50 46 44 41 39 38 36 35 34 33 32 32 31 30 30 30 30 30 30 29 29 28 27 27 27 26 26 25 23 22 22 22 22 22 22 21 20 18 17 16 14 14 14 15 15 15 14 14 13 12 12 13 14 13 12 12 11
63 61 57 52 46 40 36 35 35 31 27 26 26 26 27 27 27 28 28 30 32 34 36 37 39 42 43 42 40 40 40 37 35 35 34 33 33 32 31 31 30 30 30 30 30 30 29 29 29 28 27 27 26 25 24 23 21 20 20 20 20 20 19 18 17 15 14 15 15 16 17 17 17 16 15 14 13 13 14 15 14 13 13 13 12
63 62 60 55 48 39 34 34 37 38 37 35 33 33 34 34 33 34 34 33 34 36 37 38 38 38 38 38 38 39 38 36 36 35 34 33 33 33 32 32 32 31 31 31 31 30 30 28 28 27 26 25 24 23 22 21 20 19 19 19 18 18 17 16 16 16 17 19 20 21 21 19 17 16 15 14 15 15 15 14 14 13 14 14 13
63 62 60 55 49 44 39 36 35 37 41 43 41 40 40 40 39 39 38 38 38 38 38 40 41 41 42 42 42 42 42 41 40 39 38 37 37 36 35 35 35 34 33 32 31 30 29 28 26 25 24 24 23 22 22 21 21 20 19 18 18 18 18 19 21 22 23 24 23 22 20 18 16 17 17 17 16 15 15 15 15 15 15 15 16
63 61 60 57 52 48 46 42 37 37 43 47 48 47 46 45 44 43 42 41 41 41 40 41 41 42 43 43 43 42 42 41 40 39 38 36 35 34 33 32 32 31 31 30 28 27 26 25 24 24 23 22 23 23 22 22 21 21 21 21 21 23 24 26 26 26 25 23 21 19 17 17 18 19 18 18 16 16 17 19 20 20 20 22 23
67 63 61 60 56 51 47 44 44 46 49 51 52 52 51 50 49 48 47 46 45 44 43 42 42 41 41 40 39 38 37 36 35 33 32 31 29 28 27 26 26 25 25 24 24 24 23 23 22 22 21 21 22 21 21 22 22 24 25 27 28 29 29 29 27 25 22 19 18 16 16 17 18 18 18 20 23 26 27 27 28 30 32 32 31
66 63 62 59 53 47 46 48 53 57 59 59 59 58 57 55 54 53 51 50 49 47 46 45 44 43 41 40 39 38 36 35 34 32 30 28 27 25 24 23 22 22 21 21 21 21 20 20 20 19 19 20 21 22 24 26 27 29 31 32 31 30 28 26 23 21 19 17 17 16 17 17 18 19 22 29 36 41 42 41 40 41 41 39 37
63 61 58 54 50 50 54 59 63 65 66 66 64 62 60 58 55 53 51 49 47 45 44 43 42 41 41 40 39 37 36 34 32 30 29 27 25 23 22 21 20 20 19 19 19 19 20 20 20 21 22 24 25 26 28 30 31 32 31 29 27 25 23 22 20 19 18 18 18 18 18 20 22 26 30 36 43 48 50 50 49 47 44 42 40
67 64 60 58 60 64 69 71 71 70 68 66 62 58 54 51 47 44 41 38 35 33 32 30 29 29 29 30 32 33 33 31 30 28 26 24 22 21 20 20 19 20 20 19 19 20 21 22 23 24 25 26 27 29 29 29 28 28 26 23 22 21 19 19 18 18 19 22 25 27 27 31 35 37 37 39 44 47 49 52 54 53 48 44 43
74 73 73 73 75 77 78 76 73 68 64 58 53 48 43 39 35 32 30 28 26 25 23 22 25 28 28 26 26 27 27 27 27 27 26 24 23 23 22 21 20 20 20 20 20 20 21 21 22 23 24 25 26 27 26 25 24 22 21 20 20 20 20 21 23 24 26 31 36 39 40 44 47 47 44 43 47 48 47 49 54 56 54 51 51
Wind_Speed
30 32 33 33 32 31 30 29 28 26 25 24 24 25 25 23 21 20 20 19 18 16 15 15 14 13 12 11 10 9 9 8 8 7 7 7 7 6 6 6 6 5 5 5 5 4 4 4 4 4 4 2 1 3 4 4 4 3 2 1 1 2 2 2 3 4 5 5 6 7 8 9 9 10 11 12 13 13 14 15 15 15 16 16 17
28 30 31 32 32 32 32 31 29 27 26 25 25 25 25 24 23 22 21 20 19 18 16 16 15 14 13 12 12 11 10 10 9 9 9 9 8 8 7 7 7 7 7 6 6 5 5 4 4 4 3 2 1 2 4 5 4 4 3 1 0 1 1 2 2 3 4 5 5 6 7 7 8 9 10 11 11 13 14 15 15 15 16 16 17
28 29 30 31 32 33 33 32 30 28 26 26 26 26 26 25 24 22 22 22 20 19 18 17 16 15 14 13 13 12 12 11 11 11 10 10 10 10 10 9 9 8 8 7 6 6 5 4 4 4 3 2 2 3 5 5 5 4 3 2 1 0 1 2 3 3 4 5 5 6 7 7 8 8 9 10 11 12 14 15 14 14 15 16 17
29 29 29 31 33 33 33 32 30 28 27 27 27 27 27 26 25 24 24 23 21 20 19 18 16 15 15 15 14 14 14 13 13 13 12 12 12 12 11 11 11 10 10 9 8 7 6 5 4 4 4 4 4 5 6 5 5 4 2 1 0 0 1 3 4 4 5 6 6 6 7 8 10 10 10 11 12 12 13 15 15 15 15 16 17
29 29 29 31 32 32 32 31 30 29 28 28 28 29 28 27 25 25 25 24 22 21 20 19 17 16 16 16 16 15 15 14 14 14 14 14 14 13 13 13 13 12 11 10 9 8 6 6 6 6 6 5 5 6 6 6 5 4 3 2 1 1 2 3 4 5 6 7 9 9 9 10 11 12 14 14 14 15 16 17 17 16 17 17 17
30 29 29 29 30 30 30 30 29 29 29 30 31 31 30 28 27 26 26 25 24 23 21 20 18 18 18 18 17 16 15 15 14 14 15 15 15 15 15 15 14 14 13 11 9 9 8 7 8 8 7 7 6 6 6 6 5 4 4 3 2 2 3 4 5 5 6 7 9 10 12 13 13 14 17 18 17 18 20 21 21 21 21 20 20
31 30 29 28 29 29 28 29 29 30 31 32 32 32 31 29 28 28 27 26 25 24 23 22 20 20 20 18 17 16 15 15 15 15 15 15 16 16 16 16 15 15 13 12 11 10 9 9 9 9 8 7 5 5 5 4 3 2 2 2 3 4 5 6 7 7 7 8 9 10 12 15 16 16 19 21 21 21 23 24 23 24 26 25 24
31 31 30 29 28 28 28 29 30 31 32 33 34 33 31 30 29 29 28 27 27 25 24 23 22 22 21 18 17 16 15 15 15 15 15 16 16 16 16 16 16 15 14 13 12 11 11 11 10 10 9 7 5 4 3 1 0 2 3 5 7 8 9 9 9 9 9 10 11 13 14 16 18 19 21 23 23 24 25 26 24 25 27 27 27
30 30 30 29 29 29 30 31 31 31 33 34 33 32 31 31 30 30 29 28 28 27 26 24 23 22 20 18 17 16 16 16 16 15 15 16 16 16 16 16 15 15 14 14 13 13 13 12 12 11 9 8 6 5 3 2 2 4 6 7 9 10 11 12 12 12 12 12 13 14 16 17 19 21 22 23 24 25 27 27 26 26 27 27 27
29 29 29 30 30 31 32 32 32 32 33 33 32 32 32 32 31 31 30 30 29 28 26 24 24 22 20 18 17 17 16 17 16 15 15 16 16 16 16 16 16 15 15 15 14 14 14 13 12 11 9 7 6 5 4 4 4 5 7 9 10 11 13 14 14 15 15 15 16 16 17 17 20 22 22 24 25 26 27 28 27 28 29 28 27
28 28 29 31 32 33 34 34 33 33 33 33 32 32 32 32 32 32 31 30 29 27 26 24 24 22 20 18 18 17 17 17 16 15 16 16 16 16 17 17 16 16 15 15 15 14 14 13 12 10 9 8 7 6 6 7 7 8 9 10 11 12 14 15 15 16 17 17 18 19 19 19 21 23 24 25 27 28 28 29 29 29 30 29 27
28 29 30 31 32 33 34 34 34 34 34 33 33 33 33 32 32 32 31 30 29 27 25 24 24 22 20 19 18 18 18 18 16 16 16 16 16 17 18 17 17 16 16 15 14 14 13 12 11 10 9 8 7 8 9 10 11 11 11 12 13 14 15 16 17 18 19 19 19 20 21 22 22 24 26 28 29 30 31 32 33 33 32 30 29
28 29 30 31 31 32 34 34 35 34 34 34 33 32 32 31 30 30 30 29 28 26 25 24 23 22 20 19 19 19 19 19 17 17 17 17 17 18 18 18 18 17 16 15 15 14 13 12 10 10 9 9 9 10 12 13 14 14 14 14 14 15 17 18 20 21 21 21 21 21 24 25 25 26 29 31 31 32 34 35 37 38 36 34 30
28 29 30 30 31 32 33 34 34 34 33 33 32 31 29 29 29 29 29 28 26 25 24 24 23 22 21 20 20 20 20 19 19 18 18 18 19 19 19 19 18 17 16 16 16 16 15 13 11 11 11 10 11 13 14 16 17 17 16 16 16 17 18 20 22 23 23 24 24 23 25 28 27 26 29 32 34 35 38 40 42 42 41 39 35
28 29 30 31 31 32 32 32 32 32 32 31 30 29 28 28 28 28 27 26 25 25 24 23 22 22 21 22 21 21 21 21 20 19 19 19 20 20 20 19 18 17 17 17 17 17 16 14 13 13 13 12 14 16 17 18 19 19 19 19 19 18 19 21 23 24 24 25 26 25 27 29 30 30 33 37 40 41 44 45 46 47 47 46 42
30 30 30 30 30 30 30 31 31 31 30 30 29 28 27 27 27 27 27 26 25 25 24 23 22 22 22 22 21 21 22 22 21 20 20 21 21 20 20 19 18 19 19 18 18 18 17 16 15 16 15 15 17 19 21 22 22 21 22 22 22 21 21 22 24 25 26 27 28 30 31 34 37 39 41 44 45 46 47 47 46 49 49 46 42
30 30 29 28 28 28 28 28 28 28 28 27 27 27 27 27 27 27 26 26 26 25 25 24 24 24 24 23 22 23 25 24 23 22 23 23 23 21 21 20 20 20 20 20 20 20 19 18 18 18 17 18 20 22 24 25 24 23 24 25 24 23 24 26 27 28 29 30 33 36 37 40 43 44 44 46 48 48 48 47 47 49 48 44 41
30 29 29 29 29 28 27 27 27 26 26 25 25 25 25 26 26 26 26 26 26 26 26 26 26 26 25 24 24 25 27 27 26 25 26 26 24 23 22 22 21 21 21 21 22 21 21 21 21 20 20 21 23 25 26 27 26 26 27 28 27 26 27 29 29 29 31 34 37 40 41 43 44 44 44 47 48 47 47 48 50 52 49 45 43
30 30 30 30 29 28 28 27 26 25 25 24 24 24 24 24 25 25 25 26 26 27 27 27 26 26 26 27 27 27 28 29 29 27 27 28 26 24 24 23 23 22 22 22 23 22 21 22 23 24 24 25 25 26 28 28 29 29 30 31 31 29 29 30 31 31 33 36 40 42 42 42 43 44 44 45 46 48 50 51 52 53 51 48 47
32 31 31 30 27 26 26 26 25 25 24 24 23 23 23 24 24 24 24 24 25 26 25 25 26 26 27 28 28 29 30 31 31 30 30 29 28 27 25 24 24 23 24 25 24 23 22 24 26 27 28 28 28 28 28 29 30 30 33 35 36 34 32 31 31 33 34 37 40 41 40 39 40 41 41 41 44 48 51 51 52 54 55 53 52
32 31 30 28 26 25 25 25 25 25 24 24 23 23 22 22 22 22 22 23 23 23 23 24 24 25 26 27 27 28 30 32 33 33 32 31 30 29 27 25 26 26 26 27 26 25 25 27 28 29 30 29 29 29 29 31 31 32 35 38 41 41 38 33 33 35 35 34 35 36 37 37 38 38 39 40 42 45 47 48 49 52 55 56 56
33 32 30 29 28 28 27 27 26 26 26 25 24 23 22 22 21 21 21 21 20 20 20 21 22 23 25 25 25 26 28 31 34 35 34 33 32 30 28 27 28 28 28 28 28 28 29 30 30 31 31 31 30 30 31 32 33 34 36 40 45 47 44 39 37 35 31 31 33 35 37 39 39 39 41 41 42 44 46 47 49 50 51 53 55
36 35 34 33 32 30 30 30 29 29 28 27 26 26 25 24 23 22 22 21 19 19 19 19 20 21 22 23 23 24 26 29 33 35 36 36 34 31 29 29 30 30 29 29 29 31 32 32 32 32 33 32 32 32 33 33 35 36 38 40 46 51 50 46 41 34 32 35 39 39 39 40 41 42 43 44 45 46 47 49 50 51 52 52 52
40 39 38 36 34 32 32 31 30 30 30 30 29 29 28 27 26 26 25 24 22 21 20 20 21 21 22 22 23 24 26 28 30 32 35 36 35 32 31 31 31 32 31 30 31 32 33 33 34 34 35 34 34 34 34 35 36 38 39 40 44 50 53 52 47 42 40 42 43 42 42 44 45 46 47 48 48 48 49 51 52 53 53 53 51
41 42 41 39 37 36 34 33 32 31 31 31 30 31 31 31 30 29 29 28 26 25 24 24 23 23 23 23 23 24 26 27 28 29 31 33 33 32 32 32 33 34 33 31 32 33 34 34 36 36 36 36 36 35 35 36 38 39 40 41 43 47 53 55 52 47 45 45 46 47 47 47 48 49 50 50 50 50 52 53 53 53 54 53 51
46 46 45 43 41 39 38 36 35 34 34 33 33 33 33 33 32 32 32 31 31 30 30 29 26 25 25 26 26 26 26 26 27 28 29 31 31 32 33 34 35 36 35 34 34 35 36 36 37 38 38 38 38 37 37 38 39 40 41 43 44 47 51 54 54 51 49 49 50 51 50 50 50 51 52 52 51 52 53 55 55 54 53 52 50
50 51 50 49 46 43 41 39 39 38 38 38 37 36 35 35 35 35 35 35 34 34 34 33 31 29 28 28 29 28 27 25 25 27 28 29 31 33 35 36 37 38 37 36 36 37 38 38 39 39 39 39 39 39 39 40 40 41 42 44 46 48 50 52 54 55 55 55 55 54 54 54 53 53 54 54 53 53 55 57 57 56 54 52 50
44 46 47 48 47 46 44 43 42 41 41 41 40 39 38 38 38 38 38 38 38 37 37 37 35 34 32 30 30 29 28 27 26 26 26 26 28 30 33 35 37 37 37 37 37 37 38 38 39 39 40 40 40 40 41 41 41 42 44 46 48 49 51 52 54 56 57 58 58 58 58 57 56 56 57 56 55 56 57 58 58 57 55 54 52
39 39 40 41 42 44 45 45 45 44 43 43 43 42 42 41 41 41 41 41 41 41 40 39 38 37 35 33 31 31 30 29 28 27 27 26 26 28 29 32 34 35 36 36 37 37 38 38 38 39 39 40 40 41 42 42 43 44 46 48 50 51 52 53 55 57 58 58 59 59 59 59 59 59 59 58 59 59 59 60 60 59 58 56 54
41 41 41 41 41 42 43 44 45 45 45 45 45 45 45 45 45 45 45 45 45 45 44 42 41 40 38 36 34 33 33 32 31 30 29 29 29 29 29 30 32 33 34 35 36 37 38 38 39 39 40 40 41 42 43 44 44 46 48 50 51 53 53 54 56 57 58 58 59 60 60 60 60 61 61 61 61 61 61 61 61 61 60 58 56
41 42 44 44 45 45 45 46 46 46 47 47 48 48 48 48 49 49 48 48 48 48 47 46 45 44 42 40 38 36 35 35 34 33 32 32 32 32 32 32 33 33 34 35 36 38 39 39 40 41 41 42 43 43 44 45 47 49 50 51 52 54 55 55 57 58 58 59 60 61 61 61 62 62 63 64 64 63 63 62 62 62 61 59 57
42 43 44 45 46 47 48 48 49 49 50 50 50 51 51 51 50 49 48 47 47 47 48 47 47 46 45 43 41 39 37 37 36 36 35 35 35 34 35 35 35 36 37 38 39 40 41 43 44 44 44 44 45 45 46 47 49 50 52 53 54 55 56 57 58 58 59 60 60 61 62 62 63 64 65 66 66 65 65 64 64 64 63 61 59
42 43 44 45 47 47 48 49 50 50 51 51 51 51 50 50 49 47 45 43 43 43 44 45 45 45 45 43 42 40 38 37 37 37 36 36 37 37 38 39 39 41 42 43 44 45 46 47 48 49 48 47 46 46 47 49 50 52 53 54 55 56 57 58 59 59 60 60 61 62 62 63 64 65 66 67 67 66 66 65 65 65 65 64 62
39 41 42 44 45 46 47 48 49 49 49 49 49 49 48 46 44 42 40 38 37 37 37 37 38 39 40 40 40 39 38 37 37 37 37 37 38 39 40 41 43 44 44 45 47 49 48 46 46 46 46 45 45 46 48 50 51 53 54 55 56 57 58 59 59 60 60 61 61 62 63 64 65 66 67 67 68 67 67 66 66 66 66 66 64
36 37 38 40 41 42 42 43 45 46 46 46 46 45 43 42 40 38 36 35 35 35 34 33 33 34 35 36 36 37 37 37 37 37 38 38 39 40 41 43 45 45 45 46 47 48 47 47 46 45 45 44 46 48 51 52 53 53 55 56 56 58 59 59 60 60 61 61 62 63 64 65 66 67 68 69 69 68 67 67 67 67 67 67 66
35 35 36 37 37 38 38 39 40 41 42 42 42 41 40 39 38 36 35 36 36 35 34 34 34 34 34 35 35 36 36 36 37 38 39 40 42 44 46 48 49 47 45 45 45 46 46 47 47 48 48 48 49 51 52 54 54 55 56 57 57 58 59 60 60 61 61 62 63 64 65 67 68 68 69 69 69 69 69 68 68 68 67 67 66
36 36 36 36 37 37 36 37 38 38 39 39 40 40 39 39 39 38 38 38 38 37 36 36 36 36 37 37 37 37 37 38 40 41 42 43 44 46 47 47 46 44 43 43 44 45 46 47 47 49 50 51 51 52 53 54 56 56 57 58 59 59 60 60 60 61 62 63 64 65 67 68 69 70 70 70 70 70 70 69 68 67 66 65 65
36 36 37 38 38 38 37 36 36 37 38 39 39 40 40 41 41 41 41 40 40 39 38 38 38 38 38 39 39 39 40 40 40 40 40 41 42 44 44 43 42 42 42 43 45 46 47 48 50 52 53 53 54 54 55 56 57 58 58 59 59 60 60 61 62 63 64 65 66 67 69 70 71 71 71 71 71 71 70 70 69 67 65 64 64
33 34 35 37 39 39 39 38 37 37 37 38 39 40 41 41 42 42 42 41 42 41 41 41 41 41 41 41 41 42 42 42 41 40 40 41 42 44 45 45 44 44 44 45 46 47 48 50 52 54 55 55 56 57 57 58 58 59 59 60 60 61 62 63 64 65 66 67 68 69 71 72 72 72 72 72 72 71 71 69 68 67 65 64 64
32 31 32 34 36 38 40 40 40 39 38 38 39 40 40 41 42 42 43 43 42 41 40 41 42 43 43 42 42 42 43 43 43 43 44 44 45 46 47 48 48 48 48 48 49 49 50 52 53 55 56 57 58 58 58 59 59 59 60 61 62 63 64 65 66 67 68 69 70 71 72 72 72 72 72 72 72 71 70 69 68 67 66 65 65
33 32 31 32 33 35 37 39 40 40 40 39 39 40 41 41 42 43 44 44 42 40 39 40 40 40 39 38 38 40 41 42 43 43 44 45 46 47 49 50 51 51 51 51 52 52 53 53 54 55 56 57 58 58 59 59 60 61 62 63 64 65 66 67 68 69 70 71 72 72 72 73 73 73 72 72 71 70 69 68 68 67 67 67 65
38 36 35 34 34 34 35 37 39 40 40 40 40 41 41 42 42 43 44 45 44 43 43 43 42 41 39 39 39 40 41 42 43 44 46 47 48 49 50 51 52 52 53 53 53 54 54 55 55 56 57 58 59 60 61 62 63 64 65 66 66 67 68 69 70 71 72 72 72 73 73 73 73 73 72 71 71 70 69 68 68 68 68 67 65
45 43 41 40 38 35 34 36 38 40 41 41 41 42 42 43 44 44 45 46 46 46 46 45 45 45 45 45 45 45 45 45 46 47 48 49 50 50 51 52 53 54 54 54 55 55 56 56 57 58 59 60 61 62 63 64 65 66 67 67 68 69 70 71 72 72 72 72 72 72 72 72 72 72 72 71 71 70 70 69 69 68 67 65 63
50 48 45 44 41 38 35 35 38 40 42 43 43 43 44 44 45 45 46 47 47 48 48 47 47 47 47 47 47 47 47 48 48 49 49 50 51 52 53 53 54 55 55 56 57 57 58 59 60 61 62 63 63 64 65 66 67 68 69 69 70 71 71 72 72 72 72 72 72 72 72 72 72 72 72 71 71 71 70 70 69 67 65 63 61
52 50 48 47 45 43 41 39 40 41 43 44 44 45 45 46 47 47 47 48 48 49 49 49 49 48 48 48 48 48 48 49 49 50 50 51 52 52 53 54 55 56 57 58 59 59 60 61 62 63 64 65 66 66 67 68 69 70 70 71 71 72 72 72 72 72 71 71 71 71 72 72 72 72 72 71 71 70 69 68 66 65 63 61 59
53 51 50 49 48 47 46 45 43 44 45 46 46 47 47 47 48 49 49 50 50 50 51 51 50 50 50 50 50 50 50 50 51 51 52 53 53 54 55 56 57 58 59 60 61 62 63 64 65 65 66 67 68 68 69 69 70 70 71 71 71 71 71 71 71 71 72 72 72 72 72 72 72 71 70 70 69 68 66 64 62 61 60 58 56
53 52 51 50 50 49 49 47 46 46 47 47 48 48 48 49 49 49 50 50 51 51 52 52 53 53 53 53 53 54 54 54 55 55 56 57 57 58 59 60 61 62 63 64 64 65 66 67 67 68 68 69 69 70 70 70 71 71 71 71 71 71 71 72 72 72 73 73 73 73 72 71 70 69 68 66 65 64 62 60 58 58 57 55 54
54 52 51 51 51 50 50 48 47 47 47 48 48 49 49 49 50 50 50 51 51 52 53 54 54 55 56 56 56 57 57 58 59 59 60 61 62 63 64 64 65 66 66 67 68 68 69 69 70 70 70 71 71 71 71 71 71 71 71 72 72 72 73 73 73 74 73 73 72 71 70 68 67 65 63 61 60 59 58 57 56 55 55 54 53
53 52 51 51 51 50 49 48 47 47 47 47 47 48 48 48 49 50 50 51 52 53 54 56 57 58 59 60 61 61 62 63 63 64 64 65 66 66 67 67 68 69 69 69 70 70 70 70 71 71 71 72 72 72 72 72 72 72 73 73 73 74 74 74 73 73 72 70 69 68 66 64 63 61 59 58 57 56 56 55 54 54 53 53 53
53 51 50 49 50 49 48 47 47 47 47 46 46 47 48 49 50 51 53 54 55 56 57 59 60 61 63 64 64 65 65 66 66 66 67 67 68 68 68 69 69 70 70 70 70 70 71 71 71 72 72 73 73 74 74 74 74 74 75 75 75 75 74 73 72 70 67 65 64 63 62 60 59 58 57 56 55 55 54 53 52 52 52 52 51
53 51 49 48 48 48 48 48 47 47 47 48 49 50 52 54 56 57 58 59 59 60 60 61 61 63 65 67 68 67 67 67 67 67 67 67 67 68 68 69 69 69 70 70 71 71 72 73 73 74 74 75 75 75 75 75 75 75 75 74 73 72 70 69 68 66 64 61 60 60 59 57 57 58 57 56 55 55 54 52 50 50 50 49 47
Wind_Direction
202 199 195 193 191 190 191 195 198 199 198 196 195 199 202 203 201 197 193 193 194 197 200 204 212 220 227 235 239 238 235 233 233 235 236 235 235 237 241 245 245 241 242 248 253 259 267 283 305 311 307 305 252 192 184 181 182 188 195 186 97 78 66 49 41 39 34 31 27 24 20 14 8 6 5 3 359 356 354 351 349 348 346 345 344
206 204 200 196 193 191 193 196 198 199 198 196 196 199 202 203 202 198 195 197 199 203 207 212 219 227 234 239 241 241 240 239 236 236 236 235 234 234 235 239 241 241 240 243 245 246 254 272 287 288 287 287 246 179 172 177 183 187 195 200 154 85 57 35 35 37 36 32 26 20 15 10 4 359 355 353 351 347 344 342 341 339 339 339 338
207 207 203 200 197 195 195 197 198 199 199 197 198 200 202 204 203 199 198 200 203 207 212 217 222 227 232 237 239 241 243 244 244 241 239 237 235 232 232 233 236 239 243 247 246 243 249 260 262 261 257 234 203 176 168 174 179 182 188 198 204 192 31 15 15 16 18 21 21 13 4 358 355 351 347 344 342 339 335 333 335 335 334 334 333
208 207 205 204 202 200 199 198 198 199 199 198 198 200 202 204 202 201 202 203 205 210 214 218 220 222 228 233 236 240 243 246 248 248 244 239 234 231 231 231 232 236 241 245 247 248 249 242 232 235 236 215 192 178 171 173 174 174 179 194 230 3 31 29 19 9 1 0 3 5 358 348 344 341 338 337 335 332 328 327 332 335 332 332 331
208 207 207 207 206 204 203 201 200 199 198 198 198 200 203 203 202 202 203 204 207 212 215 218 218 220 225 232 236 240 245 249 251 251 247 240 233 229 228 230 232 234 237 241 243 246 243 229 216 217 221 210 192 177 169 165 160 155 150 144 129 70 48 36 22 5 356 349 346 349 351 348 343 333 329 331 332 328 324 327 334 335 331 330 330
206 206 208 209 208 208 206 204 203 202 199 198 198 200 202 202 202 203 204 204 208 211 215 218 219 221 227 233 238 242 246 250 251 249 245 240 234 229 227 229 232 234 236 237 235 231 227 218 214 212 212 209 193 171 160 153 144 136 126 117 100 58 32 18 7 356 351 347 341 340 343 344 343 332 327 331 333 328 325 329 336 335 330 331 331
204 205 207 207 207 207 207 206 206 204 201 198 199 200 201 201 201 203 203 204 207 210 214 217 219 224 229 233 238 243 247 250 250 248 244 241 237 233 231 230 230 233 234 230 222 217 211 209 209 206 205 204 187 164 158 151 140 125 88 44 18 11 3 358 358 353 353 353 346 342 343 342 340 335 330 333 335 332 329 333 339 335 330 333 333
203 204 205 205 205 205 205 206 207 204 201 199 199 200 200 201 202 202 203 204 207 211 214 217 221 226 231 234 239 244 247 248 249 247 245 242 239 237 235 232 230 230 227 220 212 205 200 200 201 197 194 190 182 175 181 189 262 336 349 354 357 356 353 351 351 349 352 352 347 344 345 342 337 334 333 334 335 333 333 337 340 334 329 331 332
203 204 204 204 204 205 205 205 205 204 201 200 201 201 201 202 203 203 204 205 208 212 215 219 223 228 231 234 238 243 246 247 247 246 245 244 240 238 236 234 230 225 217 210 204 196 193 195 194 192 189 188 190 200 216 242 285 315 327 340 348 347 345 345 342 341 342 344 341 339 340 338 333 330 332 332 332 333 335 336 337 333 328 330 330
203 204 204 205 206 206 205 204 203 202 201 201 202 202 202 204 204 204 206 207 209 213 218 221 225 228 231 234 236 240 243 247 247 245 243 242 240 238 235 231 227 219 210 204 199 194 193 195 196 194 193 198 209 225 245 265 285 299 312 327 337 338 338 336 333 332 332 334 333 331 332 332 327 324 327 328 328 331 331 329 329 327 324 325 326
202 203 204 205 207 207 205 202 200 199 200 202 204 205 205 205 205 206 207 208 211 215 219 222 226 228 231 234 237 239 242 246 247 244 241 240 238 234 230 227 222 215 209 205 202 199 198 201 204 202 204 214 228 247 266 277 286 293 304 317 326 329 328 325 323 322 322 325 325 324 325 325 321 320 323 322 322 325 325 322 320 318 316 315 316
200 201 203 204 206 206 204 201 199 199 200 203 206 207 207 206 206 207 207 209 213 216 219 222 226 229 231 234 237 239 242 246 247 245 242 240 236 232 228 225 220 215 213 211 211 211 209 209 212 214 219 229 244 263 274 282 287 293 300 308 315 320 318 316 316 315 315 316 318 319 318 317 319 319 318 317 319 320 319 317 314 311 308 306 305
200 201 203 203 203 203 202 200 199 200 203 206 210 210 210 209 208 208 209 212 215 217 219 222 224 227 231 234 236 239 242 245 245 243 241 239 237 234 229 224 221 219 220 219 220 223 222 220 222 227 234 244 258 268 274 280 284 288 292 297 304 308 309 311 312 311 311 312 314 316 314 315 321 320 311 310 314 315 314 314 310 308 305 303 303
200 202 202 202 201 201 201 200 202 204 207 210 213 214 213 212 211 211 212 215 217 218 220 222 223 225 229 232 235 239 243 244 243 240 238 237 237 235 231 227 227 227 227 225 227 230 230 227 228 234 243 252 261 266 271 275 280 284 289 293 295 299 304 308 308 309 311 312 315 318 315 314 319 317 308 306 310 313 314 311 306 303 304 304 305
199 201 201 201 201 202 202 203 205 208 211 212 214 214 214 212 212 213 215 217 218 220 221 222 223 225 228 232 235 239 243 244 243 240 237 236 236 235 232 231 233 234 233 233 234 236 234 231 232 238 246 255 262 267 271 274 278 283 287 289 290 293 300 303 303 306 308 312 319 322 317 314 317 318 315 313 316 318 316 312 307 305 310 315 315
199 201 201 200 201 202 203 205 207 209 211 211 211 211 210 210 211 213 216 218 219 221 223 225 226 229 231 234 237 240 244 245 243 240 238 237 236 234 232 233 236 238 239 240 241 241 239 236 236 241 247 255 262 267 271 274 278 283 286 288 291 295 299 300 302 306 309 314 321 320 316 316 319 322 321 319 322 322 316 314 314 314 320 326 327
202 202 201 199 200 201 202 204 206 207 208 208 208 208 208 209 212 215 217 220 222 224 226 228 230 232 235 237 238 241 244 245 243 240 239 239 237 233 232 234 237 239 240 242 243 243 242 242 243 245 249 256 262 267 272 275 279 283 287 289 292 296 298 297 301 307 310 315 318 315 313 317 322 325 323 323 324 320 315 318 320 319 323 328 327
205 203 202 201 200 199 200 201 202 203 205 205 206 209 210 213 217 219 221 224 227 229 231 232 233 235 238 240 241 242 244 246 244 242 241 242 240 236 235 237 238 238 240 242 244 244 245 248 251 252 254 258 262 268 272 276 280 284 287 289 291 295 294 294 301 308 309 311 313 313 315 319 322 324 325 326 327 322 319 322 322 320 324 327 324
204 201 201 202 202 200 200 200 200 201 203 205 207 210 213 216 219 222 225 228 231 233 234 235 235 236 238 241 243 243 245 248 248 246 245 245 243 239 238 241 242 242 243 244 245 245 247 252 255 256 257 259 262 267 271 276 280 285 288 290 291 293 294 297 304 309 308 309 313 316 318 319 321 324 327 328 327 322 320 321 320 320 323 325 323
200 198 199 200 200 198 197 197 198 200 201 204 206 209 213 217 220 223 226 229 232 234 235 236 237 237 238 241 243 243 245 247 249 248 247 247 246 243 242 244 246 245 245 246 247 247 249 252 255 257 259 261 263 267 272 276 281 285 288 290 290 290 292 297 302 304 306 309 312 313 316 318 320 322 323 320 318 316 318 320 321 322 323 324 324
196 195 196 195 192 191 192 194 197 200 203 205 207 209 213 218 222 223 225 228 231 234 235 235 237 239 240 241 242 243 244 246 248 250 250 250 250 248 247 249 249 248 248 248 247 247 250 252 255 257 260 262 265 269 273 277 281 285 289 291 289 286 286 290 294 295 299 304 308 311 315 315 314 313 311 311 312 315 319 321 322 323 323 323 323
194 192 193 193 193 194 197 200 202 205 208 210 212 215 217 221 224 225 226 229 231 236 239 239 240 242 244 245 245 245 246 246 248 250 251 252 252 252 252 253 253 254 254 251 249 249 250 251 254 257 260 263 266 269 273 278 283 287 290 291 290 288 289 291 292 293 301 309 311 312 312 308 305 306 308 311 316 319 321 322 323 324 323 323 322
192 193 195 197 200 203 205 207 208 211 213 214 217 220 223 226 229 230 231 232 233 237 242 245 245 246 248 250 249 248 248 248 248 248 250 252 254 254 255 256 258 260 260 256 252 251 251 252 254 257 260 263 266 269 274 278 282 285 287 290 291 292 292 294 297 302 312 315 311 308 306 305 306 309 312 315 319 321 322 323 325 325 324 322 320
194 194 196 201 206 208 208 210 213 215 217 218 219 222 225 228 230 233 235 236 237 240 244 247 248 247 248 250 252 251 250 249 249 249 250 252 254 256 257 259 262 264 264 260 255 253 252 253 255 257 260 263 266 269 273 276 278 281 284 288 292 294 293 295 301 308 312 310 307 306 307 307 309 312 314 316 319 322 323 324 325 326 324 322 319
198 197 200 204 208 208 208 212 215 217 219 220 221 224 226 228 230 233 236 239 240 242 245 248 249 247 247 248 251 252 251 250 251 252 252 253 254 256 257 259 262 265 266 264 260 257 255 255 257 259 261 263 266 269 272 274 277 280 283 287 291 294 295 297 301 306 307 306 306 306 307 307 309 312 315 317 320 322 322 323 324 325 323 321 319
201 202 204 207 209 208 209 211 213 216 219 221 223 226 228 230 233 235 238 240 241 242 244 246 247 246 246 245 247 250 252 252 252 251 252 254 256 257 258 259 261 263 265 265 264 261 259 258 259 261 262 264 266 268 271 274 277 280 283 286 290 293 296 299 302 305 306 305 304 304 305 306 307 310 313 316 319 320 321 321 323 323 322 320 319
207 208 209 210 210 210 211 211 212 216 219 220 222 225 227 230 234 237 239 241 243 243 244 245 246 245 245 245 245 246 249 253 254 254 254 255 256 257 258 258 259 261 263 263 262 261 260 260 260 262 263 264 265 267 270 274 277 280 284 286 289 293 296 299 302 304 305 304 303 304 304 305 306 308 312 315 318 320 321 322 322 322 321 319 319
217 217 218 218 215 212 211 210 212 216 220 222 224 225 226 230 233 236 239 241 243 245 245 246 246 246 246 246 246 246 248 250 254 257 258 258 256 255 256 256 257 259 261 261 261 260 260 260 260 261 262 263 265 268 271 274 277 281 284 286 289 292 295 298 300 302 302 303 304 306 306 307 309 312 315 317 320 321 322 322 322 321 320 319 319
223 223 223 223 220 216 214 213 215 217 220 223 226 227 227 229 232 235 238 241 243 245 247 248 248 248 248 248 248 248 248 248 249 252 255 257 257 256 255 255 256 258 259 260 260 260 260 260 260 261 262 263 266 268 271 275 278 280 283 286 288 291 294 296 297 298 300 302 305 307 308 310 312 315 317 318 319 320 321 322 321 320 319 319 320
225 225 225 225 224 223 221 221 221 222 223 225 228 230 231 232 232 234 236 239 240 242 244 246 248 249 249 249 249 248 248 248 249 249 250 252 254 256 257 258 258 259 259 260 260 260 261 261 262 262 263 265 267 270 272 275 278 280 282 285 288 290 292 293 294 296 299 302 305 306 308 311 313 315 316 317 317 319 320 320 319 319 319 319 318
225 226 227 228 228 227 227 227 227 227 227 228 230 232 234 235 235 236 238 240 242 244 245 246 248 249 250 249 249 248 248 248 250 250 251 252 254 256 258 259 260 261 261 262 262 263 263 263 264 265 265 267 269 271 274 276 278 279 282 285 287 288 290 291 293 295 299 301 304 306 308 311 312 313 314 314 316 317 318 318 318 317 317 317 316
225 226 228 229 230 230 230 231 231 232 232 233 234 235 237 239 241 243 245 246 248 249 250 249 250 250 250 250 249 249 248 249 250 251 252 254 255 257 259 260 262 263 264 265 265 265 265 265 266 266 267 268 270 272 273 275 277 279 281 284 286 288 290 291 293 296 298 301 303 305 307 309 310 311 311 312 314 315 316 316 316 315 316 316 315
225 227 228 230 231 232 232 234 235 237 238 239 240 241 242 244 246 247 247 247 248 249 250 250 250 250 251 251 251 251 251 251 252 253 255 257 258 260 261 262 263 264 265 265 266 266 267 268 267 266 265 265 268 272 275 276 278 280 281 283 285 288 290 292 294 296 298 300 302 304 305 307 307 308 309 310 312 313 314 314 314 314 314 314 314
223 225 227 229 230 232 233 235 237 238 240 241 241 242 243 243 243 242 242 243 245 247 248 249 249 250 250 251 252 253 254 256 257 258 259 260 261 262 263 263 264 264 265 266 267 268 269 270 271 271 269 265 266 272 278 279 279 280 282 284 285 288 290 292 294 296 298 299 301 302 304 305 305 306 307 309 310 311 312 313 313 313 313 313 313
221 222 224 227 229 230 231 233 235 236 238 239 239 239 239 239 238 239 240 243 245 246 247 248 248 249 250 250 252 253 255 257 258 260 261 262 263 264 264 263 263 264 265 268 270 271 271 272 273 276 277 274 272 274 278 279 280 281 283 285 287 289 291 292 294 295 297 298 300 301 302 303 304 305 306 307 309 310 311 312 312 313 313 313 313
222 224 225 226 228 229 231 232 234 236 237 238 238 238 238 238 239 241 243 245 246 247 248 248 248 249 250 250 250 252 253 255 256 257 258 259 259 259 260 261 262 264 267 269 271 273 274 274 274 276 278 278 277 277 278 279 281 284 285 287 288 290 291 292 293 295 296 298 299 300 300 301 302 304 305 307 308 309 310 311 312 313 313 313 313
227 228 229 230 229 229 230 232 234 236 238 239 240 241 241 242 243 244 245 246 247 247 247 246 247 248 249 249 250 251 251 252 252 253 254 255 256 258 260 261 263 266 267 269 271 274 275 275 275 277 278 278 279 279 280 281 283 285 286 288 288 290 291 292 293 295 296 297 298 299 300 301 302 303 305 306 308 309 310 311 311 312 313 313 313
233 232 233 233 233 232 232 232 233 236 238 240 241 242 243 244 245 246 246 247 247 247 246 246 246 246 246 247 248 249 250 251 252 254 255 257 260 263 264 264 265 266 267 268 271 274 275 275 275 276 278 278 279 280 281 283 284 285 287 288 289 290 291 292 293 294 295 296 297 298 299 301 302 303 304 306 307 309 309 310 311 312 313 313 313
237 237 237 236 235 235 235 234 234 235 237 239 241 243 244 245 246 247 247 248 249 249 249 249 248 247 246 246 246 248 250 253 255 257 259 260 262 265 266 267 268 270 270 270 272 273 273 273 274 275 277 278 280 281 282 283 284 286 287 288 289 290 291 292 293 294 295 296 297 298 299 300 302 303 304 306 307 308 309 310 311 312 313 313 312
234 237 241 242 240 239 237 237 237 237 237 239 241 243 244 245 247 248 249 250 251 252 253 253 252 251 251 251 251 253 256 258 259 260 262 263 264 266 267 269 271 271 271 271 272 272 272 272 273 274 276 277 279 280 281 283 284 285 287 288 289 290 291 292 293 294 295 296 297 298 299 300 302 303 305 306 307 308 308 310 311 312 312 312 311
234 237 241 244 246 246 244 242 241 240 240 241 242 244 245 246 247 249 251 251 251 251 253 255 256 256 256 257 257 258 260 262 263 265 265 266 266 267 267 269 270 271 271 272 272 272 272 273 273 274 276 277 279 280 282 283 285 286 287 288 289 290 291 292 293 294 294 295 296 297 299 301 302 303 305 305 306 308 309 310 311 311 311 311 310
241 243 245 247 249 252 253 251 249 246 245 245 245 246 247 248 248 249 251 253 253 253 253 254 256 257 258 259 260 261 262 263 264 265 266 266 266 266 267 268 269 270 271 271 272 272 273 274 275 276 277 279 280 282 283 284 285 287 288 288 289 290 291 292 292 293 294 295 297 298 300 301 302 303 304 305 306 308 309 310 310 310 309 309 308
247 250 251 252 253 256 258 257 255 252 251 250 250 250 251 251 252 252 253 255 256 256 256 256 256 257 259 260 261 261 262 263 263 264 264 265 265 266 267 268 269 270 271 272 273 274 275 276 277 279 279 281 282 283 284 285 286 286 287 288 289 290 290 291 292 293 294 296 298 299 300 301 302 303 304 306 307 308 309 309 308 308 307 307 307
249 251 252 253 254 257 262 264 261 257 254 253 253 253 254 255 255 256 256 257 259 260 260 260 261 261 261 262 262 262 263 264 264 264 265 266 267 267 268 269 270 271 273 274 275 276 277 277 278 279 280 281 282 282 283 284 285 286 287 288 288 289 290 291 293 294 296 297 298 299 300 301 303 304 306 307 307 308 307 307 307 306 306 306 306
248 248 249 251 253 257 264 269 268 261 257 255 254 254 255 256 257 258 259 259 261 262 263 264 265 265 266 266 266 267 267 267 268 268 268 269 269 270 271 271 272 272 273 274 274 275 276 277 278 278 279 280 281 282 283 284 285 286 287 288 289 290 292 293 294 296 297 298 299 300 301 303 304 305 306 306 306 306 305 305 305 305 305 305 306
246 246 248 250 253 258 264 269 268 261 256 255 254 255 256 257 258 258 259 260 261 262 263 265 266 267 268 268 269 270 270 271 271 272 272 272 272 273 273 273 273 274 274 275 275 276 277 277 278 279 280 280 281 282 283 285 286 287 288 289 291 292 293 294 295 296 297 298 300 301 302 303 304 304 304 304 304 304 304 304 304 304 304 305 305
247 249 250 253 256 261 265 266 262 255 252 251 252 254 255 256 257 258 259 260 261 262 264 265 266 267 268 269 270 271 272 272 273 273 274 275 275 275 276 276 276 276 276 277 278 278 279 280 280 281 282 283 284 285 286 287 288 289 290 291 292 293 294 295 296 297 298 299 300 301 302 302 302 302 302 302 302 302 302 302 302 302 303 303 304
250 252 254 257 260 262 263 260 254 248 247 248 249 251 252 254 255 257 258 260 261 263 264 265 266 267 268 269 270 270 271 272 272 273 274 274 275 276 276 277 277 277 278 279 279 280 281 281 282 283 284 285 286 287 287 288 289 290 291 292 293 294 295 296 297 298 298 299 299 300 300 299 299 299 300 299 299 300 300 301 301 300 301 301 302
251 252 255 258 260 260 257 251 246 244 244 245 246 248 250 252 255 257 259 261 262 264 265 266 267 267 268 268 269 269 270 270 271 272 272 273 274 275 275 276 277 277 278 279 279 280 281 282 283 284 285 286 286 287 288 289 290 290 291 292 293 294 295 296 296 297 298 298 298 298 297 297 297 298 298 297 298 298 298 299 299 299 299 299 300
249 251 253 254 254 251 248 244 242 241 243 245 247 251 254 257 260 262 264 266 267 268 269 269 269 269 269 268 268 268 269 269 270 271 271 272 273 274 275 275 276 277 278 279 280 281 281 282 283 284 285 286 287 287 288 289 290 291 292 292 293 294 295 295 295 295 295 295 295 295 296 296 296 296 296 296 296 297 297 297 298 298 298 299 300
247 248 248 246 245 243 242 241 241 243 246 251 256 261 264 267 268 270 270 271 272 272 272 272 272 271 269 268 267 268 268 269 270 271 272 273 273 274 275 276 276 277 278 279 280 281 282 282 283 284 285 286 286 287 288 289 290 291 292 292 293 293 294 294 294 294 295 295 295 295 295 296 295 295 295 296 296 295 295 296 296 296 298 300 302